Weather History for Tampa Executive, FL

Change the Weather History Date:

Saturday, October 29, 2011

  Actual Average (KTPA) Record (KTPA)
Temperature  
Mean Temperature 72 °F 73 °F  
Max Temperature 78 °F 82 °F 91 °F (2009)
Min Temperature 66 °F 64 °F 42 °F (2008)
Degree Days  
Heating Degree Days 0 0  
Month to date heating degree days 0  
Since 1 July heating degree days 0  
Cooling Degree Days 7 8  
Month to date cooling degree days 334  
Year to date cooling degree days 3350  
Growing Degree Days 22 (Base 50)    
Moisture  
Dew Point 67 °F    
Average Humidity 88    
Maximum Humidity 100    
Minimum Humidity 65    
Precipitation  
Precipitation 0.07 in 0.05 in 1.97 in (1955)
Month to date precipitation 2.16  
Year to date precipitation 42.18  
Sea Level Pressure  
Sea Level Pressure 29.87 in    
Wind  
Wind Speed 4 mph (North)    
Max Wind Speed 12 mph    
Max Gust Speed 21 mph    
Visibility 7 miles    
Events Rain    
T = Trace of Precipitation, MM = Missing Value Source: NWS Daily Summary

Daily Weather History Graph

Daily Weather History Graph

Search for Another Location

Airport:

Trip Planner

Search our weather history database for the weather conditions in past years. The results will help you decide how hot, cold, wet, or windy it might be!

Date:

Astronomy

Oct. 29, 2011 Rise Set
Actual Time 7:38 AM EDT 6:47 PM EDT
Civil Twilight 7:14 AM EDT 7:11 PM EDT
Nautical Twilight 6:46 AM EDT 7:39 PM EDT
Astronomical Twilight 6:19 AM EDT 8:06 PM EDT
Moon 10:43 AM EDT (10/29) 9:25 PM EDT (10/29)
Length of Visible Light 11h 57m
Length of Day
11h 09m
Waxing Crescent, 11% of the Moon is Illuminated
Oct 29
Waxing Crescent
Nov 2
First Quarter
Nov 10
Full
Nov 18
Last Quarter
Nov 25
New

Hourly Weather History & Observations

Time (EDT) Temp. Dew Point Humidity Pressure Visibility Wind Dir Wind Speed Gust Speed Precip Events Conditions
12:15 AM - - N/A% - 3.0 mi North - - N/A   Mist
12:35 AM - - N/A% - 4.0 mi North - - N/A   Haze
12:55 AM 68.0 °F 66.2 °F 94% - 4.0 mi North - - 0.03 in Rain Heavy Rain
1:15 AM 68.0 °F 66.2 °F 94% 29.88 in - North - - N/A Rain Light Rain
1:35 AM - - N/A% - 3.0 mi North - - N/A   Mist
1:55 AM 68.0 °F 66.2 °F 94% - 5.0 mi North - - N/A   Mist
2:15 AM 68.0 °F 66.2 °F 94% - - Calm Calm - N/A   Unknown
2:35 AM 68.0 °F 66.2 °F 94% 29.85 in 3.0 mi ENE 3.5 mph - N/A   Overcast
2:55 AM 68.0 °F 66.2 °F 94% - - North - - N/A Rain Light Rain
3:15 AM - - N/A% - 3.0 mi North - - N/A   Drizzle
3:35 AM 68.0 °F 66.2 °F 94% 29.83 in - North - - N/A   Light Drizzle
3:55 AM 68.0 °F 66.2 °F 94% - - North - - N/A   Unknown
4:35 AM 68.0 °F 68.0 °F 100% 29.82 in - North - - N/A   Unknown
4:55 AM 68.0 °F 68.0 °F 100% 29.83 in - Calm Calm - N/A   Unknown
5:15 AM 68.0 °F 68.0 °F 100% 29.82 in - Calm Calm - N/A   Unknown
5:35 AM 68.0 °F 68.0 °F 100% 29.83 in 4.0 mi Calm Calm - N/A   Overcast
6:15 AM 68.0 °F 68.0 °F 100% 29.83 in 5.0 mi NNW 3.5 mph - N/A   Overcast
7:15 AM 68.0 °F 68.0 °F 100% - - North - - 0.01 in   Unknown
7:35 AM 68.0 °F 68.0 °F 100% - 4.0 mi North - - N/A   Light Drizzle
7:55 AM 68.0 °F 68.0 °F 100% - 4.0 mi North - - N/A Rain Light Rain
8:15 AM 68.0 °F 68.0 °F 100% - 3.0 mi North - - N/A Rain Light Rain
8:35 AM 68.0 °F 68.0 °F 100% - - North - - N/A Rain Light Rain
8:55 AM - - N/A% - 4.0 mi North - - 0.03 in Rain Light Rain
9:15 AM - - N/A% - 4.0 mi North - - N/A   Drizzle
9:35 AM 68.0 °F 64.4 °F 88% 29.89 in - North 10.4 mph 20.7 mph N/A   Unknown
9:55 AM 66.2 °F 64.4 °F 94% 29.90 in 3.0 mi North 4.6 mph - N/A   Drizzle
10:15 AM 66.2 °F 64.4 °F 94% 29.90 in 3.0 mi North 6.9 mph - N/A   Overcast
10:35 AM 68.0 °F 64.4 °F 88% 29.91 in 4.0 mi North 5.8 mph - N/A   Overcast
10:55 AM 68.0 °F 66.2 °F 94% 29.90 in 5.0 mi NE 3.5 mph - N/A   Overcast
11:15 AM 68.0 °F 68.0 °F 100% 29.89 in 10.0 mi NNE 5.8 mph - N/A   Mostly Cloudy
11:35 AM 69.8 °F 68.0 °F 94% 29.89 in 10.0 mi North 3.5 mph - N/A   Scattered Clouds
11:55 AM 69.8 °F 68.0 °F 94% 29.88 in 10.0 mi Calm Calm - N/A   Scattered Clouds
12:15 PM 75.2 °F 69.8 °F 83% 29.88 in 10.0 mi NNE 5.8 mph - N/A   Scattered Clouds
12:55 PM 78.8 °F 69.8 °F 74% 29.88 in 10.0 mi NNW 5.8 mph - N/A   Mostly Cloudy
1:15 PM 77.0 °F 68.0 °F 74% 29.88 in 10.0 mi NNW 11.5 mph - N/A   Overcast
1:35 PM 73.4 °F 68.0 °F 83% 29.88 in 10.0 mi North 11.5 mph 18.4 mph N/A   Overcast
1:55 PM 77.0 °F 68.0 °F 74% 29.88 in 10.0 mi North 10.4 mph - N/A   Overcast
2:15 PM 73.4 °F 68.0 °F 83% 29.88 in 10.0 mi North 11.5 mph 20.7 mph N/A   Overcast
2:55 PM 77.0 °F 68.0 °F 74% 29.87 in 10.0 mi NNE 5.8 mph - N/A   Mostly Cloudy
3:15 PM 78.8 °F 68.0 °F 69% 29.87 in 10.0 mi North 6.9 mph - N/A   Mostly Cloudy
3:35 PM 78.8 °F 66.2 °F 65% 29.87 in 10.0 mi North 9.2 mph - N/A   Scattered Clouds
3:55 PM 77.0 °F 66.2 °F 69% 29.87 in 10.0 mi North 6.9 mph - N/A   Scattered Clouds
4:15 PM 78.8 °F 68.0 °F 69% 29.87 in 10.0 mi NNE 4.6 mph - N/A   Scattered Clouds
4:35 PM 78.8 °F 68.0 °F 69% 29.87 in 10.0 mi North 4.6 mph - N/A   Mostly Cloudy
4:55 PM 77.0 °F 66.2 °F 69% 29.87 in 10.0 mi NE 5.8 mph - N/A   Scattered Clouds
5:15 PM 77.0 °F 66.2 °F 69% 29.87 in 10.0 mi North 8.1 mph - N/A   Scattered Clouds
5:35 PM 77.0 °F 66.2 °F 69% 29.87 in 10.0 mi Calm Calm - N/A   Clear
5:55 PM 77.0 °F 66.2 °F 69% 29.88 in 10.0 mi NE 3.5 mph - N/A   Clear
6:15 PM 75.2 °F 66.2 °F 73% 29.89 in 10.0 mi NE 3.5 mph - N/A   Clear
6:35 PM 73.4 °F 66.2 °F 78% 29.90 in 10.0 mi Calm Calm - N/A   Scattered Clouds
6:55 PM 73.4 °F 66.2 °F 78% 29.90 in 10.0 mi NNE 3.5 mph - N/A   Mostly Cloudy
7:15 PM 71.6 °F 64.4 °F 78% 29.91 in 10.0 mi NNE 6.9 mph - N/A   Scattered Clouds
7:55 PM 69.8 °F 64.4 °F 83% 29.94 in 10.0 mi NNE 6.9 mph - N/A   Clear
8:15 PM 68.0 °F 62.6 °F 83% 29.95 in 10.0 mi NNE 5.8 mph - N/A   Clear
8:35 PM 68.0 °F 62.6 °F 83% 29.96 in 10.0 mi NNE 4.6 mph - N/A   Scattered Clouds
8:55 PM 68.0 °F 62.6 °F 83% 29.96 in 10.0 mi North 5.8 mph - N/A   Mostly Cloudy
9:15 PM 68.0 °F 62.6 °F 83% 29.97 in 10.0 mi NNE 5.8 mph - N/A   Mostly Cloudy
9:35 PM 68.0 °F 62.6 °F 83% 29.99 in 10.0 mi NNE 4.6 mph - N/A   Overcast
9:55 PM 68.0 °F 62.6 °F 83% 29.99 in 10.0 mi NNE 6.9 mph - N/A   Overcast
10:15 PM 68.0 °F 62.6 °F 83% 30.01 in 10.0 mi NNE 5.8 mph - N/A   Overcast
10:35 PM 68.0 °F 62.6 °F 83% 30.01 in 10.0 mi North 5.8 mph - N/A   Overcast
10:55 PM 68.0 °F 60.8 °F 78% 30.01 in 10.0 mi North 9.2 mph - N/A   Overcast
11:15 PM 68.0 °F 60.8 °F 78% 30.02 in 10.0 mi NNE 9.2 mph 17.3 mph N/A   Overcast
11:35 PM 68.0 °F 60.8 °F 78% 30.03 in 10.0 mi NNE 8.1 mph - N/A   Overcast
11:55 PM 68.0 °F 60.8 °F 78% 30.03 in 10.0 mi NE 5.8 mph - N/A   Overcast